Regional Weather Roundup
Issued by NWS Upton, NY

Current Version | Previous Version | Text Only | Print | Product List | Glossary On
Versions: 1 2 3 4 5 6 7 8 9 10 11 12 13 14 15 16 17 18 19 20 21 22 23 24 25 26 27 28 29 30 31 32 33 34 35 36 37 38 39 40 41 42 43 44 45 46 47 48 49 50
338
ASUS41 KOKX 251609
RWROKX

REGIONAL WEATHER ROUNDUP
NATIONAL WEATHER SERVICE NEW YORK NY
1200 PM EDT THU MAY 25 2017

NOTE: "FAIR" INDICATES FEW OR NO CLOUDS BELOW 12,000 FEET WITH NO
SIGNIFICANT WEATHER AND/OR OBSTRUCTIONS TO VISIBILITY.

NYZ071-072-176-178-NJZ106-104-251700-
NEW YORK CITY METRO AREA

CITY           SKY/WX    TMP DP  RH WIND       PRES   REMARKS
Central Park   RAIN      57  56  96 E9        29.64F VSB 1
Wall St Helipt LGT RAIN  58  57  97 NE18      29.61F FOG
Bronx Bot Gard   N/A     55  54  94 NE32      29.63F
LaGuardia APRT RAIN      57  56  96 NE13      29.62F FOG
Kennedy INTL   LGT RAIN  58  57  97 E20G28    29.62F FOG
Breezy Point     N/A     54 N/A N/A E22G38      N/A
Newark/Liberty LGT RAIN  57  57 100 E8G18     29.61F FOG
Teterboro      LGT RAIN  57  55  93 E10G20    29.61F FOG
$$

NYZ177-179-078>081-251700-
LONG ISLAND NEW YORK

CITY           SKY/WX    TMP DP  RH WIND       PRES   REMARKS
Jones Beach      N/A     54 N/A N/A E25G36      N/A
Matinecock PT    N/A     59 N/A N/A E28         N/A
Farmingdale    LGT RAIN  57  56  96 E14G22    29.63F FOG
MacArthur/ISP  LGT RAIN  56  56 100 E12       29.64F FOG
Shirley        LGT RAIN  55  32  41 VRB7      29.66F
Mt Sinai Harb    N/A     55 N/A N/A E13G18      N/A
Westhampton    LGT RAIN  55  52  89 E13       29.68F FOG
East Hampton   LGT RAIN  54  52  95 E9G16     29.70F
Montauk          N/A     54  54 100 E15G22    29.71F
$$

NYZ052-065-067-251700-
HUDSON VALLEY

CITY           SKY/WX    TMP DP  RH WIND       PRES   REMARKS
White Plains   LGT RAIN  55  53  93 E18G30    29.63F FOG
Larchmont Harb   N/A     55 N/A N/A NE31G38     N/A
Croton O-T Hud   N/A     57 N/A N/A E13G25      N/A
Newburgh       LGT RAIN  55  55 100 E14       29.66S FOG
Montgomery     LGT RAIN  57  55  93 NE10      29.64F
Poughkeepsie   LGT RAIN  57  54  89 NE5       29.65S FOG
Albany         CLOUDY    61  48  62 E9G20     29.71F
$$

NJZ001-105-106-008-010-013-015-019>022-104-251700-
NEW JERSEY

CITY           SKY/WX    TMP DP  RH WIND       PRES   REMARKS
Newark/Liberty LGT RAIN  57  57 100 E8G18     29.61F FOG
Teterboro      LGT RAIN  57  55  93 E10G20    29.61F FOG
Caldwell       LGT RAIN  59  56  89 E14G20    29.62S FOG
Somerville     LGT RAIN  59  57  93 E6        29.57F FOG
Linden         HVY RAIN  58  55  92 E10       29.61F
Perth Amboy      N/A     55 N/A N/A E16G25      N/A
Sussex         LGT RAIN  57  56  96 E9        29.62F FOG
Andover          N/A     57  54  89 MISG      29.60F
Trenton        CLOUDY    57  56  96 E13       29.56F
Millville      CLOUDY    66  66 100 E6        29.52F
Atlantic City  CLOUDY    64  62  93 SE8       29.54F FOG
Wrightstown    CLOUDY    58  56  96 E10       29.53F
Toms River     CLOUDY    58  57  97 E7        29.57F FOG
Belmar         LGT RAIN  55  55 100 E17       29.59F FOG
$$

PAZ047>061-062-071-251700-
EASTERN PENNSYLVANIA

CITY           SKY/WX    TMP DP  RH WIND       PRES   REMARKS
Philadelphia   DRIZZLE   60  57  89 E12       29.55S FOG
Allentown      LGT RAIN  59  55  87 E12G22    29.55F
Scranton       LGT RAIN  59  56  89 NE12      29.54F FOG
$$

CTZ002-004>006-009-010-012-RIZ004-006-007-MAZ004-011-015-251700-
SOUTHERN NEW ENGLAND
 IN CT

CITY           SKY/WX    TMP DP  RH WIND       PRES   REMARKS
Bradley INTL   LGT RAIN  57  55  93 NE8       29.74F
Hartford       LGT RAIN  58  55  90 E13G18    29.72F
Danbury        LGT RAIN  56  56 100 E12       29.68S FOG
Wtrbury/Oxford DRIZZLE   55  52  88 E12G23    29.69F FOG
Bridgeport     LGT RAIN  58  54  86 E25G35    29.67F FOG
Meriden        LGT RAIN  58  55  90 NE8G16    29.69F
New Haven      LGT RAIN  57  55  93 E9        29.68F FOG
Chester        DRIZZLE   57  57 100 E10G18    29.69F
Groton         RAIN      58  56  93 E13G22    29.71S FOG
Wilimantic     LGT RAIN  59  56  89 E10       29.74F FOG

 IN RI

CITY           SKY/WX    TMP DP  RH WIND       PRES   REMARKS
Providence     CLOUDY    56  56 100 NE14      29.75F FOG
Block Island   LGT RAIN  54  53  97 E15G23    29.72F FOG
Westerly       RAIN      58  56  93 E14G22    29.73S FOG
 IN MA

CITY           SKY/WX    TMP DP  RH WIND       PRES   REMARKS
Boston         LGT RAIN  53  50  89 NE20G29   29.83S FOG
Worcester      LGT RAIN  50  49  96 NE14G22   29.78F VSB 1/4
Westfield      RAIN      56  53  90 NE12G21   29.75F FOG
Provincetown   LGT RAIN  53  51  93 E18G25    29.79F
Nantucket      CLOUDY    53  51  93 E14G23    29.74F
$$

ANZ330-335-338-340-345-350-353-355-251700-
COASTAL MARINE OBSERVATIONS


STATION/POSITION TIME  SKY/WX   TEMP    WIND        PRES    VSBY  WAVE
                                AIR SEA DIR/SP/G                  HT/PER
                 (UTC)          (F)     (DEG/KT/KT) (MB)    (MI)  (FT/S)
NY HARB ENTRANCE 1450            55 55   80/ 21/ 27 1002.4          7/ 6
20 S FIRE ISLAND 1550            54 54   90/ 19/ 23 1002.0          6/ 7
GREAT SOUTH BAY  1515            55 63   80/ 25/ 29   N/A
23 SSW MONTAUK P 1450            53 54              1005.1          6/ 6
15 E BARNEGAT LI 1530               56                N/A           6/ 6
HUDSON CANYON    1450            56 52   70/ 12/ 17 1002.7          5/ 6
KINGS POINT      1542            57 57   90/  5/ 11 1003.1
EXECUTION ROCKS  1545            56                   N/A
CENTRAL LI SOUND NOT AVBL
EASTERN LI SOUND NOT AVBL
ROBBINS REEF     1542            57      80/ 14/ 21 1003.1
$$


>>>>>>>>>>>>>>>>>>>>>>>>>>>> KEY <<<<<<<<<<<<<<<<<<<<<<<<<<<
>                                                          <
>     SKY/WX - Sky Condition/Present Weather               <
>     TMP    - Temperature in Fahrenheit                   <
>     DP     - Dew Point in Fahrenheit                     <
>     RH     - Relative Humidity in Percent                <
>     WIND   - Direction (from) and Speed in MPH           <
>     PRES   - Mean Sea Level Pressure (inches of Hg)      <
>     WCI    - Wind Chill Index                            <
>     VSB    - VISIBILITY IN MILES                         <
>     HX     - HEAT INDEX                                  <
>     TC     - TEMPERATURE IN CELSIUS                      <
>     VRB    - VARIABLE WIND DIRECTION                     <
>                                                          <
>>>>>>>>>>>>>>>>>>>>>>>>>>>> KEY <<<<<<<<<<<<<<<<<<<<<<<<<<<




USA.gov is the U.S. government's official web portal to all federal, state and local government web resources and services.